Terminal Aerodrome Forecast
Issued by NWS Portland, ME

Home | Current Version | Previous Version | Text Only | Print | Product List | Glossary On
Versions: 1 2 3 4 5 6 7 8 9 10 11 12 13 14 15 16 17 18 19 20 21 22 23 24 25 26 27 28 29 30 31
000
FTUS41 KGYX 230520
TAFCON
TAF
KCON 230520Z 2306/2406 06011G20KT P6SM OVC025
     FM231800 05010G20KT P6SM OVC015 PROB30 2400/2403 2SM -SN
     FM240300 02012G25KT 1SM -SN BR OVC015=

USA.gov is the U.S. government's official web portal to all federal, state and local government web resources and services.